AMOS-17

Last updated on Nov. 29, 2020, 6:16 a.m. UTC

1 44479U 19050A   20333.37202162  .00000127  00000-0  00000+0 0  9996
2 44479   0.0117 299.3967 0002369 302.9290 336.3353  1.00272918  4863
UTC
Height (km)
Latitude
Longitude
Inclination
Orbital Period
UTC large
Height (km)
Speed (km/s)
/
Latitude / Longitude
Inclination (degrees)
Orbital Period (minutes)
Azimuth
Elevation
Range (km)
Doppler Factor
iOS Compass Heading
iOS Angle

Next 30 passes for location: Hong Kong

Rise time Rise Azimuth (degrees) Set time Set Azimuth (degrees) Duration Max altitude (degrees)

No matching passes for this satellites